STARLINK-11511 [DTC]

Last updated on Fri Jan 31 2025 00:02:04 GMT+0000 (Coordinated Universal Time)

1 62468U 24254G 25030.57619454 .00002860 00000+0 19287-4 0 9990 2 62468 43.0011 134.4558 0002010 288.0743 71.9908 15.77866447 5983
UTC large
Height (km)
Speed (km/s)
/
Latitude / Longitude
Inclination (degrees)
Orbital Period (minutes)
Azimuth
Elevation
Range (km)
Doppler Factor

Next 0 passes for location: London (51.5072 / 0.1276)

Sorry there are no passes over London.